COSMOS 829

Satellite information

Favourite Embed

Satellite Type and Status

PAYLOADIN ORBIT

Key statistics

Satellite COSMOS 829 at a glance.

Uptime

17983

Days in orbit

Revolutions

≈ 12.5

Per day

Orbit

LEO

Low Earth Orbit

Inclination

74.0

Latest

Satellite identification and parameters

Extended collection of information and parameters for COSMOS 829.

Object identification

Identified? True

Debris? False

Object name: COSMOS 829

International designator: 1976-054E

Object number (NORAD): 8893

Object ID (CCSDS): 8893

Country: COMMONWEALTH OF INDEPENDENT STATES (CIS)

Current information (Y/N): Y

RCS size: MEDIUM

Orbital parameters

Period: 115.322 minutes

Inclination: 74.0049 deg

SMA: 7848.181 km

Apoapsis: 1490.574 km

Periapsis: 1449.517 km

RAAN: 358.3505 deg

Eccentricy: 0.0026157

Argument of periapsis: 235.8133 deg

Mean anomaly: 135.1455 deg

Mean motion: 12.4867454 rev/day

Mean motion (dot): -0.0000001 rev/day2

B* drag term: 0.000043065008 1/REarth

Two-line elements (TLE)

Creation date: Sept. 8, 2025, 6:18 p.m.

Reference frame: TEME

Reference center: EARTH

Epoch: Sept. 8, 2025, 1:26 p.m. UTC

TLE line 0: 0 COSMOS 829

TLE line 1: 1 08893U 76054E 25251.56036218 -.00000010 00000-0 43065-4 0 9990

TLE line 2: 2 08893 74.0049 358.3505 0026157 235.8133 135.1455 12.48674540244138

Live tracking on map

Real-time ground track for satellite COSMOS 829.

In-orbit conjunctions

A list of the most updated potential collisions computed for object COSMOS 829.

Target Orbit TCA Probability of collision Miss distance Type
FENGYUN 1C DEB SSO 2025-06-27 16:19:04 0.0003667056 181.0 (m) DEBRIS

Associated space launch

Military communications satellites

COSMOS 829 was lifted into orbit during the mission ‘Kosmos-3M | Strela-1M 113-120’, on board a Kosmos-3M space rocket.

The launch took place on June 15, 1976, 1:19 p.m. from 132/2.

For more information about the launch, click the button.

Launch to space Kosmos-3M | Strela-1M 113-120
Kosmos-3M | Strela-1M 113-120

Agency: N/A

Status: Launch Successful

Launch date: June 15, 1976, 1:19 p.m. UTC

Rocket: Kosmos-3M

Launch pad: 132/2

Location: Plesetsk Cosmodrome, Russian Federation

...

Latest news about this satellite

There are no fresh news available about this satellite. Check back as we update our databases every day.


Newsletter sign-up

Weekly statistics, charts and insights to help you stay on top of the space industry.